This is the latest recevied weather packets stored in our database for station/object DG3GAI-6. If no packets are shown the sender has not sent any weather packets the latest 1 day(s).
| Time | Temp. | Humidity | Pressure | Rain* | Wind** | Luminosity | Snow |
|---|---|---|---|---|---|---|---|
| 1777968825 | 13.33° C | 74% | 1013 hPa | - | 0 m/s | - | - |
| 1777967017 | 12.78° C | 76% | 1013 hPa | - | 0 m/s | - | - |
| 1777965210 | 12.78° C | 80% | 1014 hPa | - | 0 m/s | - | - |
| 1777963403 | 12.22° C | 81% | 1014 hPa | - | 0 m/s | - | - |
| 1777961596 | 12.22° C | 80% | 1014 hPa | - | 0 m/s | - | - |
| 1777959788 | 12.22° C | 80% | 1014 hPa | - | 0 m/s | - | - |
| 1777957981 | 12.22° C | 78% | 1014 hPa | - | 0 m/s | - | - |
| 1777956174 | 11.67° C | 78% | 1014 hPa | - | 0 m/s | - | - |
| 1777954367 | 11.67° C | 76% | 1014 hPa | - | 0 m/s | - | - |
| 1777952559 | 11.67° C | 76% | 1014 hPa | - | 0 m/s | - | - |
| 1777950752 | 11.67° C | 75% | 1014 hPa | - | 0 m/s | - | - |
| 1777948945 | 12.22° C | 74% | 1015 hPa | - | 0 m/s | - | - |
| 1777947138 | 12.22° C | 73% | 1015 hPa | - | 0 m/s | - | - |
| 1777945330 | 12.22° C | 74% | 1015 hPa | - | 0 m/s | - | - |
| 1777943523 | 12.78° C | 74% | 1015 hPa | - | 0 m/s | - | - |
| 1777941727 | 13.33° C | 76% | 1016 hPa | - | 0 m/s | - | - |
| 1777939908 | 13.33° C | 77% | 1016 hPa | - | 0 m/s | - | - |
| 1777938101 | 13.33° C | 75% | 1016 hPa | - | 0 m/s | - | - |
| 1777934487 | 13.89° C | 75% | 1016 hPa | - | 0 m/s | - | - |
| 1777932679 | 13.89° C | 76% | 1016 hPa | - | 0 m/s | - | - |
| 1777930872 | 13.89° C | 75% | 1017 hPa | - | 0 m/s | - | - |
| 1777929065 | 13.89° C | 74% | 1017 hPa | - | 0 m/s | - | - |
| 1777927258 | 14.44° C | 73% | 1017 hPa | - | 0 m/s | - | - |
* Rain since midnight (hover to see other rain measurements)
** Current wind speed in m/s (hover to see current wind gust speed)